Ida, MI (48140)

7:37 PM EST on February 08, 2016 (GMT -0500)
Jackman near Morocco, Ida, MI | | Change Station
CLOSE
Current Station
Personal Weather Station
Location: Michigan, MI
Elevation: 643 ft
Nearby Weather Stations

Elev 643 ft 41.84 °N, 83.59 °W | Updated 6 seconds ago

Overcast
Overcast
35.4 °F
Feels Like 35 °F
N
2.2
Wind Variable Wind from SW
Gusts 3.7 mph

Today
High -- | Low -- °F
--% Chance of Precip.
Yesterday
High -- | Low -- °F
Precip. -- in
Pressure 29.60 in
Visibility 10.0 miles
Clouds Overcast 4900 ft
Windchill 35 °F
Dew Point 29 °F
Humidity 77%
Rainfall 0.00 in
Snow Depth Not available.
7:39 AM 5:57 PM
New Moon, 0% visible
METAR KTTF 090015Z AUTO 00000KT 10SM OVC049 02/01 A2960 RMK AO2 T00150005
Pressure 29.60 in
Visibility 10.0 miles
Clouds Overcast 4900 ft
Windchill 35 °F
Dew Point 29 °F
Humidity 77%
Rainfall 0.00 in
Snow Depth Not available.
7:39 AM 5:57 PM
New Moon, 0% visible
METAR KTTF 090015Z AUTO 00000KT 10SM OVC049 02/01 A2960 RMK AO2 T00150005

10-Day Weather Forecast

Almanac

Astronomy

Feb. 08, 2016 Rise Set
Actual Time
Civil Twilight
Nautical Twilight
Astronomical Twilight
Moon
Length of Visible Light
Length of Day
Tomorrow will be .
, % of the Moon is Illuminated

Today's Extremes

State Highs State Lows

Community

WunderPhotos

Upload Photos

1,891,527 photos uploaded!

WunderBlog® & News

Nearby

Air Quality

  Air Quality AQ Index Pollutant
Not available.

Snow Depth

Station Depth Elevation

Earthquake Activity

City Distance Mag. Time & Date
Minimum magnitude displayed is 2.5.

Coastal Water Temperatures

Place Temperature

Stations

Nearby Weather Stations

Station Location Temp. Windchill Dew Point Humidity Wind Precip. Elev Updated Type
                   

Watches & Warnings

There are currently no watches in effect.